#timestamp,LO_Frequency,Hit,StdDev 
1699052415.1,286047002.5,N
1699052416.0,286047002.5,N
1699052435.8,286047002.3,N
1699052455.7,286047002.1,N
1699052475.5,286047002.3,N
1699052495.3,286047000.9,N
1699052515.2,286047000.0,N
1699052535.0,286047000.2,N
1699052535.9,286047000.2,N
1699052555.8,286046999.8,N
1699052575.6,286047000.2,N
1699052595.4,286047000.5,N
1699052615.3,286046998.5,N
1699052635.1,286047001.2,N
1699052655.8,286046999.9,N
1699052675.7,286047002.8,N
1699052695.5,286047002.8,N
1699052715.4,286046999.7,N
1699052735.2,286047002.0,N
1699052755.0,286047004.4,Y
1699052755.9,286047004.4,P
1699052775.8,286047001.0,N
1699052795.6,286047000.0,N
1699052815.5,286047000.9,N
1699052835.3,286047000.2,N
1699052855.1,286047000.7,N
1699052875.9,286047000.8,N
1699052895.7,286047000.3,N
1699052915.5,286047000.4,N
1699052935.4,286046999.9,N
1699052955.2,286047000.3,N
1699052975.1,286046999.9,N
1699052976.0,286046999.9,N
1699052995.8,286047002.3,N
1699053015.6,286047002.2,N
1699053035.5,286047002.7,N
1699053055.3,286047000.2,N
1699053075.2,286047002.3,N
1699053095.9,286047001.4,N
1699053115.7,286046999.7,N
1699053135.6,286047002.5,N
1699053155.4,286047002.0,N
1699053175.3,286047000.9,N
1699053195.1,286047000.7,N
1699053196.0,286047000.7,N
1699053215.8,286047001.2,N
1699053235.7,286047001.0,N
1699053255.5,286047002.8,N
1699053275.3,286047000.1,N
1699053295.2,286047002.1,N
1699053315.0,286047002.8,N
1699053315.9,286047002.8,N
1699053335.8,286047002.0,N
1699053355.6,286047001.5,N
1699053375.4,286047001.5,N
1699053395.3,286047001.5,N
1699053415.1,286047001.4,N
1699053435.9,286047001.5,N
1699053455.7,286047001.8,N
1699053475.5,286047001.9,N
1699053495.4,286047001.9,N
1699053515.2,286047001.5,N
1699053535.0,286047001.4,N
1699053535.9,286047001.4,N
1699053555.8,286047003.9,Y
1699053575.6,286047002.4,P
1699053595.5,286046999.8,N
1699053615.3,286046999.8,N
1699053635.1,286047000.2,N
1699053655.9,286047000.6,N
1699053675.7,286047000.0,N
1699053695.6,286047001.1,N
1699053715.4,286046998.6,N
1699053735.2,286046999.4,N
1699053755.1,286046999.4,N
1699053756.0,286046999.4,N
1699053775.8,286046998.5,N
1699053795.6,286047001.2,N
1699053815.5,286047000.8,N
1699053835.3,286047000.6,N
1699053855.2,286046998.5,N
1699053875.9,286047001.1,N
1699053895.7,286047000.8,N
1699053915.6,286046998.1,N
1699053935.4,286047000.6,N
1699053955.2,286047002.3,N
1699053975.1,286047002.7,N
1699053976.0,286047002.7,N
1699053995.8,286047002.5,N
1699054015.7,286047002.4,N
1699054035.5,286046999.8,N
1699054055.3,286047000.2,N
1699054075.2,286047000.4,N
1699054095.0,286047002.7,N
1699054095.9,286047002.7,N
1699054115.7,286046999.7,N
1699054135.6,286047002.6,N
1699054155.4,286047001.6,N
1699054175.3,286047003.9,N
1699054195.1,286047001.3,N
1699054196.0,286047001.3,N
1699054215.8,286047001.8,N
1699054235.7,286047002.2,N
1699054255.5,286046999.7,N
1699054275.3,286047001.0,N
1699054295.2,286047001.2,N
1699054315.0,286047000.6,N
1699054315.9,286047000.6,N
1699054335.8,286047000.6,N
1699054355.6,286047000.1,N
1699054375.5,286047001.0,N
1699054395.3,286047000.6,N
1699054415.1,286047000.0,N
1699054435.9,286047001.0,N
1699054455.7,286047000.5,N
1699054475.5,286047000.1,N
1699054495.4,286047000.6,N
1699054515.2,286047000.5,N
1699054535.1,286047002.7,N
1699054536.0,286047002.7,N
1699054555.8,286047000.1,N
1699054575.7,286046999.9,N
1699054595.5,286046999.7,N
1699054615.3,286047002.6,N
1699054635.2,286047001.5,N
1699054655.0,286047002.2,N
1699054655.9,286047002.2,N
1699054675.8,286047002.3,N
1699054695.7,286047002.8,N
1699054715.6,286047002.8,N
1699054735.4,286047002.6,N
1699054755.2,286047002.1,N
1699054775.1,286047001.9,N
1699054776.0,286047001.9,N
1699054795.8,286047002.0,N
1699054815.7,286047002.8,N
1699054835.5,286047002.5,N
1699054855.3,286047001.5,N
1699054875.2,286047001.8,N
1699054895.0,286047002.0,N
1699054895.9,286047002.0,N
1699054915.8,286047002.5,N
1699054935.6,286047000.8,N
1699054955.4,286047000.7,N
1699054975.3,286046998.5,N
1699054995.1,286046998.2,N
1699055015.8,286046998.5,N
1699055035.7,286046998.6,N
1699055055.5,286046997.2,N
1699055075.4,286046997.3,N
1699055095.2,286046996.8,N
1699055115.0,286046997.6,N
1699055115.9,286046997.6,N
1699055135.8,286046996.2,N
1699055155.6,286046993.4,Y
1699055175.4,286046995.1,P
1699055195.3,286046995.7,N
1699055215.1,286046994.1,N
1699055235.9,286046994.7,N
1699055255.7,286046994.7,N
1699055275.5,286046994.8,N
1699055295.4,286046993.1,Y
1699055315.2,286046995.5,P
1699055335.0,286046995.8,P
1699055336.0,286046995.8,P
1699055355.8,286046995.7,Y
1699055375.6,286046999.1,P
1699055395.5,286046999.3,N
1699055415.3,286046998.2,N
1699055435.1,286046998.6,N
1699055455.9,286046998.1,N
1699055475.7,286047001.1,N
1699055495.6,286046998.8,N
1699055515.4,286046998.3,N
1699055535.2,286046999.4,N
1699055555.1,286046998.9,N
1699055556.0,286046998.9,N
1699055575.8,286046999.3,N
1699055595.6,286046997.1,N
1699055615.5,286046996.5,N
1699055635.3,286046996.5,N
1699055655.2,286046996.8,N
1699055675.9,286046995.1,Y
1699055695.7,286046999.5,P
1699055715.6,286046999.3,N
1699055735.4,286046998.7,N
1699055755.2,286046998.3,Y
1699055775.1,286047001.1,P
1699055776.0,286047001.1,N
1699055795.8,286047000.6,N
1699055815.7,286047000.3,N
1699055835.5,286047001.1,N
1699055855.3,286046998.2,N
1699055875.2,286046999.0,N
1699055895.0,286046998.6,N
1699055895.9,286046998.6,N
1699055915.7,286046999.3,N
1699055935.6,286046998.4,N
1699055955.4,286046999.3,N
1699055975.3,286046999.3,N
1699055995.1,286046999.4,N
